エレーニン彗星

C/2017 A3 ( Elenin )

English version
Home page
Updated on May 24, 2020

---------------------------------------------------------------------

・ プロフィール

発見日 2017年1月5日
発見光度 17.6等
発見者 L. Elenin (ISON-SSO Observatory at Siding Spring)

・ 写真集

・ 軌道要素

Epoch 2017 Feb. 16.0 TT = JDT 2457800.5                                         
T 2017 Jan. 30.60833 TT                                 Rudenko                 
q   3.8545342            (2000.0)            P               Q                  
z  +0.0230753      Peri.  304.10802     -0.19845177     -0.03167642             
 +/-0.0000000      Node    97.90380     +0.81986672     +0.54230901             
e   0.9110557      Incl.   98.50857     -0.53706187     +0.83958177             
From 187 observations 2017 Jan. 5-Dec. 1, mean residual 0".6.                   

・ 光度変化

        m1 = 6.0 + 5 logΔ + 15.0 log r

---------------------------------------------------------------------

軌道要素はM.P.E.C. 2020-K117に掲載されたものです。
光度グラフはComet for Windowsで作成したものです。

---------------------------------------------------------------------

Copyright(C) Seiichi Yoshida (comet@aerith.net). All rights reserved.